When you browse on this site, cookies collect data to enhance your experience and personalize the content and advertising you see.
Visit our Privacy Policy to learn more. By continuing to use the site, you agree to this use of cookies and data.
  • In Lithuania
  • List of Countries
  • For 7 days
  • Water Temperature
  • Satellite Maps
  • Weather Map
  • Weather Widgets
  • user-avatar
    Login

    Hourly Weather Ovidiopol

    Today, 19 November, Monday

    Time Temperature Precipitation Wind Pressure Humidity
    00:00 -1°C° 0 mm 4 mps 762 mmHg 68%
    01:00 0°C° 0 mm 4 mps 761 mmHg 71%
    02:00 0°C° 0 mm 5 mps 761 mmHg 74%
    03:00 -1°C° 0.4 mm 6 mps 761 mmHg 78%
    04:00 -1°C° 0.4 mm 7 mps 760 mmHg 82%
    05:00 0°C° 0.4 mm 8 mps 760 mmHg 86%
    06:00 0°C° 0.9 mm 9 mps 759 mmHg 87%
    07:00 +1°C° 0.9 mm 9 mps 759 mmHg 89%
    08:00 +1°C° 0.9 mm 9 mps 759 mmHg 90%
    09:00 +2°C° 1 mm 10 mps 758 mmHg 88%
    10:00 +2°C° 1 mm 11 mps 758 mmHg 86%
    11:00 +2°C° 1 mm 11 mps 757 mmHg 85%
    12:00 +2°C° 0.5 mm 12 mps 757 mmHg 84%
    13:00 +2°C° 0.5 mm 12 mps 756 mmHg 84%
    14:00 +1°C° 0.5 mm 13 mps 756 mmHg 84%
    15:00 +2°C° 1 mm 12 mps 755 mmHg 85%
    16:00 +3°C° 1 mm 12 mps 755 mmHg 87%
    17:00 +3°C° 1 mm 11 mps 755 mmHg 89%
    18:00 +2°C° 0.7 mm 10 mps 755 mmHg 89%
    19:00 +2°C° 0.7 mm 9 mps 755 mmHg 90%
    20:00 +2°C° 0.7 mm 8 mps 755 mmHg 90%
    21:00 +1°C° 0.3 mm 9 mps 755 mmHg 89%
    22:00 0°C° 0.3 mm 9 mps 756 mmHg 88%
    23:00 -1°C° 0.3 mm 9 mps 756 mmHg 88%

    Tomorrow, 20 November, Tuesday

    Time Temperature Precipitation Wind Pressure Humidity
    00:00 -1°C° 0.1 mm 9 mps 757 mmHg 87%
    01:00 -1°C° 0.1 mm 9 mps 757 mmHg 87%
    02:00 -1°C° 0.1 mm 9 mps 758 mmHg 86%
    03:00 -3°C° 0 mm 9 mps 758 mmHg 86%
    04:00 -3°C° 0 mm 9 mps 759 mmHg 86%
    05:00 -3°C° 0 mm 9 mps 759 mmHg 86%
    06:00 -2°C° 0 mm 8 mps 760 mmHg 86%
    07:00 -2°C° 0 mm 8 mps 760 mmHg 86%
    08:00 -2°C° 0 mm 8 mps 761 mmHg 85%
    09:00 -2°C° 0 mm 7 mps 761 mmHg 84%
    10:00 -1°C° 0 mm 6 mps 762 mmHg 82%
    11:00 -1°C° 0 mm 6 mps 762 mmHg 80%
    12:00 -1°C° 0 mm 6 mps 762 mmHg 80%
    13:00 +1°C° 0 mm 5 mps 762 mmHg 79%
    14:00 +1°C° 0 mm 5 mps 762 mmHg 79%
    15:00 0°C° 0 mm 5 mps 762 mmHg 82%
    16:00 0°C° 0 mm 5 mps 762 mmHg 84%
    17:00 0°C° 0 mm 4 mps 762 mmHg 86%
    18:00 0°C° 0 mm 4 mps 762 mmHg 87%
    19:00 0°C° 0 mm 4 mps 762 mmHg 87%
    20:00 0°C° 0 mm 4 mps 762 mmHg 87%
    21:00 0°C° 0.2 mm 4 mps 762 mmHg 87%
    22:00 0°C° 0.2 mm 4 mps 762 mmHg 87%
    23:00 0°C° 0.2 mm 5 mps 762 mmHg 88%

    Day after tomorrow, 21 November, Wednesday

    Time Temperature Precipitation Wind Pressure Humidity
    00:00 0°C° 0.2 mm 5 mps 762 mmHg 88%
    01:00 0°C° 0.2 mm 5 mps 762 mmHg 88%
    02:00 0°C° 0.2 mm 5 mps 762 mmHg 88%
    03:00 0°C° 0.3 mm 5 mps 761 mmHg 88%
    04:00 0°C° 0.3 mm 5 mps 761 mmHg 88%
    05:00 0°C° 0.3 mm 5 mps 761 mmHg 88%
    06:00 -1°C° 0.2 mm 6 mps 761 mmHg 87%
    07:00 -2°C° 0.2 mm 6 mps 761 mmHg 87%
    08:00 -2°C° 0.2 mm 6 mps 761 mmHg 86%
    09:00 -2°C° 0 mm 6 mps 761 mmHg 84%
    10:00 -1°C° 0 mm 6 mps 761 mmHg 82%
    11:00 -1°C° 0 mm 6 mps 761 mmHg 80%
    12:00 +1°C° 0.1 mm 6 mps 761 mmHg 79%
    13:00 0°C° 0.1 mm 7 mps 761 mmHg 78%
    14:00 0°C° 0.1 mm 7 mps 761 mmHg 76%
    15:00 0°C° 0 mm 7 mps 761 mmHg 77%
    16:00 0°C° 0 mm 7 mps 761 mmHg 78%
    17:00 -1°C° 0 mm 7 mps 761 mmHg 79%
    18:00 -1°C° 0 mm 7 mps 761 mmHg 79%
    19:00 -1°C° 0 mm 7 mps 761 mmHg 80%
    20:00 -1°C° 0 mm 7 mps 761 mmHg 81%
    21:00 -2°C° 0 mm 7 mps 762 mmHg 81%
    22:00 -2°C° 0 mm 7 mps 762 mmHg 82%
    23:00 -3°C° 0 mm 7 mps 762 mmHg 82%

    22 November, Thursday

    Time Temperature Precipitation Wind Pressure Humidity
    00:00 -3°C° 0 mm 7 mps 762 mmHg 82%
    01:00 -4°C° 0 mm 7 mps 762 mmHg 82%
    02:00 -4°C° 0 mm 7 mps 763 mmHg 82%
    03:00 -4°C° 0 mm 7 mps 763 mmHg 82%
    04:00 -6°C° 0 mm 7 mps 763 mmHg 82%
    05:00 -6°C° 0 mm 7 mps 763 mmHg 82%
    06:00 -6°C° 0 mm 7 mps 763 mmHg 82%
    07:00 -6°C° 0 mm 7 mps 764 mmHg 81%
    08:00 -6°C° 0 mm 7 mps 764 mmHg 80%
    09:00 -4°C° 0 mm 7 mps 764 mmHg 75%
    10:00 -3°C° 0 mm 6 mps 764 mmHg 70%
    11:00 -2°C° 0 mm 6 mps 765 mmHg 65%
    12:00 -2°C° 0 mm 6 mps 765 mmHg 65%
    13:00 -1°C° 0 mm 6 mps 764 mmHg 64%
    14:00 -1°C° 0 mm 6 mps 764 mmHg 63%
    15:00 -2°C° 0 mm 6 mps 764 mmHg 70%
    16:00 -3°C° 0 mm 6 mps 765 mmHg 76%
    17:00 -4°C° 0 mm 6 mps 765 mmHg 82%
    18:00 -4°C° 0 mm 6 mps 765 mmHg 84%
    19:00 -5°C° 0 mm 6 mps 766 mmHg 86%
    20:00 -5°C° 0 mm 6 mps 766 mmHg 88%
    21:00 -5°C° 0 mm 6 mps 766 mmHg 88%
    22:00 -5°C° 0 mm 5 mps 766 mmHg 87%
    23:00 -6°C° 0 mm 5 mps 767 mmHg 87%

    23 November, Friday

    Time Temperature Precipitation Wind Pressure Humidity
    00:00 -6°C° 0 mm 5 mps 767 mmHg 86%
    01:00 -6°C° 0 mm 5 mps 767 mmHg 85%
    02:00 -6°C° 0 mm 5 mps 767 mmHg 84%
    03:00 -6°C° 0 mm 5 mps 767 mmHg 84%
    04:00 -7°C° 0 mm 5 mps 767 mmHg 84%
    05:00 -7°C° 0 mm 5 mps 768 mmHg 84%
    06:00 -7°C° 0 mm 5 mps 768 mmHg 83%
    07:00 -7°C° 0 mm 5 mps 768 mmHg 82%
    08:00 -7°C° 0 mm 5 mps 769 mmHg 81%
    09:00 -5°C° 0 mm 5 mps 769 mmHg 75%
    10:00 -4°C° 0 mm 5 mps 769 mmHg 69%
    11:00 -2°C° 0 mm 5 mps 769 mmHg 63%
    12:00 -1°C° 0 mm 5 mps 769 mmHg 63%
    13:00 -1°C° 0 mm 5 mps 769 mmHg 62%
    14:00 0°C° 0 mm 5 mps 769 mmHg 62%
    15:00 -1°C° 0 mm 4 mps 769 mmHg 69%
    16:00 -3°C° 0 mm 4 mps 769 mmHg 76%
    17:00 -4°C° 0 mm 4 mps 769 mmHg 84%
    18:00 -4°C° 0 mm 4 mps 769 mmHg 86%
    19:00 -5°C° 0 mm 4 mps 770 mmHg 89%
    20:00 -5°C° 0 mm 4 mps 770 mmHg 91%
    21:00 -5°C° 0 mm 4 mps 770 mmHg 92%
    22:00 -5°C° 0 mm 4 mps 770 mmHg 92%
    23:00 -5°C° 0 mm 3 mps 770 mmHg 93%

    24 November, Saturday

    Time Temperature Precipitation Wind Pressure Humidity
    00:00 -6°C° 0 mm 3 mps 769 mmHg 93%
    01:00 -6°C° 0 mm 3 mps 769 mmHg 93%
    02:00 -6°C° 0 mm 3 mps 769 mmHg 93%
    03:00 -6°C° 0 mm 3 mps 769 mmHg 92%
    04:00 -6°C° 0 mm 3 mps 769 mmHg 92%
    05:00 -6°C° 0 mm 3 mps 768 mmHg 92%
    06:00 -5°C° 0 mm 2 mps 768 mmHg 91%
    07:00 -4°C° 0 mm 2 mps 768 mmHg 90%
    08:00 -4°C° 0 mm 2 mps 768 mmHg 89%
    09:00 -3°C° 0 mm 2 mps 768 mmHg 84%
    10:00 +1°C° 0 mm 1 mps 768 mmHg 78%
    11:00 +2°C° 0 mm 1 mps 768 mmHg 73%
    12:00 +3°C° 0 mm 1 mps 768 mmHg 70%
    13:00 +4°C° 0 mm 1 mps 767 mmHg 68%
    14:00 +4°C° 0 mm 1 mps 767 mmHg 66%
    15:00 +3°C° 0 mm 1 mps 766 mmHg 71%
    16:00 +2°C° 0 mm 1 mps 766 mmHg 76%
    17:00 0°C° 0 mm 0 mps 766 mmHg 81%
    18:00 0°C° 0 mm 0 mps 766 mmHg 83%
    19:00 0°C° 0 mm 0 mps 766 mmHg 84%
    20:00 0°C° 0 mm 0 mps 766 mmHg 85%
    21:00 +1°C° 0 mm 1 mps 766 mmHg 86%
    22:00 +1°C° 0 mm 1 mps 765 mmHg 87%
    23:00 +1°C° 0 mm 1 mps 765 mmHg 88%
    Show more